Flag for Germany Weather past 2 weeks in Hamburg, Hamburg, Germany

Now
57 °F

Broken clouds.


Feels Like: 53 °F
Forecast: 52 / 59 °F
Wind: 17 mph from Southwest

Location: Hamburg-Fuhlsbuettel

Current Time: Sep 4, 2015 at 10:17:50 AM

Latest Report: Sep 4, 2015 at 9:50 AM


Visibility: N/A

Pressure: 29.86 "Hg

Humidity: 72%

Dew point: 48 °F

Location of HamburgLocation

Historic Weather in Hamburg — Graph

°F

Hamburg temperature yesterday

Maximum temperature yesterday: 64 °F (at 1:50 PM)
Minimum temperature yesterday: 48 °F (at 6:50 AM)
Average temperature yesterday: 57 °F

Past Weeks' High & Low Weather Summary

 TemperatureHumidityPressure
High82 °F (Aug 31, 4:50 PM)100% (Aug 20, 9:20 AM)30.30 "Hg (Aug 20, 9:20 AM)
Low48 °F (Sep 3, 6:50 AM)30% (Aug 22, 12:50 PM)29.59 "Hg (Aug 24, 7:20 PM)
Average64 °F75%29.96 "Hg
* Reported Aug 20 9:20 AM — Sep 4 9:20 AM, Hamburg, Weather by CustomWeather, © 2015

Note: Actual official high and low records may vary slightly from our data, if they occured in-between our weather recording intervals... More about our weather records

Advertising

Hamburg weather history for previous 24 hours

 ConditionsComfort  
Time TempWeatherWind HumidityBarometerVisibility
9:20 AM
Fri, Sep 4
57 °FPartly sunny.13 mph72%29.86 "HgN/A
8:50 AM55 °FPartly sunny.13 mph82%29.86 "HgN/A
8:20 AM54 °FSunny.12 mph88%29.86 "Hg10 mi
7:50 AM54 °FPassing clouds.9 mph88%29.86 "HgN/A
7:20 AM52 °FClear.8 mph88%29.89 "Hg10 mi
6:50 AM50 °FClear.9 mph94%29.86 "Hg10 mi
6:20 AM50 °FClear.8 mph94%29.86 "Hg10 mi
5:50 AM50 °FClear.8 mph94%29.89 "Hg10 mi
5:20 AM50 °FClear.8 mph94%29.89 "Hg10 mi
4:50 AM50 °FClear.7 mph94%29.89 "Hg10 mi
4:20 AM50 °FClear.7 mph88%29.89 "Hg10 mi
3:50 AM50 °FClear.7 mph88%29.89 "Hg10 mi
3:20 AM50 °FClear.6 mph94%29.89 "Hg10 mi
2:50 AM50 °FClear.7 mph94%29.89 "Hg10 mi
2:20 AM52 °FClear.3 mph88%29.89 "Hg10 mi
1:50 AM52 °FClear.6 mph88%29.89 "Hg10 mi
1:20 AM52 °FClear.6 mph88%29.89 "Hg10 mi
12:50 AM52 °FClear.5 mph88%29.89 "Hg10 mi
12:20 AM52 °FClear.5 mph94%29.89 "Hg10 mi
11:20 PM
Thu, Sep 3
52 °FPassing clouds.2 mph94%29.89 "HgN/A
10:50 PM54 °FPassing clouds.3 mph88%29.89 "HgN/A
10:20 PM55 °FPassing clouds.3 mph82%29.89 "HgN/A
9:50 PM55 °FPassing clouds.3 mph82%29.89 "HgN/A
9:20 PM57 °FSprinkles. Passing clouds.7 mph77%29.89 "HgN/A
8:50 PM59 °FSprinkles. Broken clouds.10 mph72%29.89 "HgN/A
8:20 PM61 °FScattered showers. Partly sunny.5 mph59%29.89 "HgN/A
7:50 PM61 °FPassing clouds.6 mph59%29.89 "HgN/A
7:20 PM61 °FPassing clouds.9 mph59%29.89 "HgN/A
6:50 PM63 °FPassing clouds.9 mph52%29.89 "HgN/A
6:20 PM64 °FPassing clouds.12 mph49%29.89 "HgN/A
5:20 PM64 °FPassing clouds.10 mph49%29.89 "HgN/A
4:50 PM64 °FPassing clouds.7 mph49%29.89 "HgN/A
4:20 PM63 °FPassing clouds.9 mph52%29.89 "HgN/A
3:50 PM64 °FPassing clouds.10 mph52%29.89 "HgN/A
3:20 PM64 °FScattered clouds.12 mph49%29.89 "HgN/A
2:50 PM64 °FPassing clouds.9 mph49%29.89 "HgN/A
2:20 PM64 °FPassing clouds.10 mph49%29.92 "HgN/A
1:50 PM64 °FPassing clouds.10 mph52%29.92 "HgN/A
1:20 PM63 °FPassing clouds.10 mph52%29.92 "HgN/A
12:50 PM61 °FPassing clouds.8 mph63%29.92 "HgN/A
12:20 PM61 °FScattered clouds.9 mph63%29.92 "HgN/A
11:50 AM61 °FScattered clouds.7 mph68%29.92 "HgN/A
11:20 AM59 °FPartly sunny.9 mph68%29.92 "HgN/A
10:50 AM59 °FScattered clouds.9 mph68%29.92 "HgN/A
10:20 AM59 °FPartly sunny.10 mph68%29.92 "HgN/A
Weather by CustomWeather, © 2015

See weather overviewHow to use our weather pages